Regional Weather Roundup
Issued by NWS

Home | Current Version | Previous Version | Text Only | Print | Product List | Glossary On
Versions: 1 2 3 4 5 6 7 8 9 10 11 12 13 14 15 16 17 18 19 20 21 22 23 24 25 26 27 28 29 30 31 32 33 34 35 36 37 38 39 40 41 42 43 44 45 46 47 48 49 50
000
ASCA44 KEWX 280420
RWRMX

LATIN AMERICA AND CARIBBEAN REGIONAL WEATHER ROUNDUP
NATIONAL WEATHER SERVICE AUSTIN/SAN ANTONIO TX
1100 PM CDT FRI MAR 27 2015

NOTE: "FAIR" INDICATED FEW OR NO CLOUDS BELOW 12,000 FEET WITH NO
SIGNIFICANT WEATHER AND/OR OBSTRUCTIONS TO VISIBILITY.

BAJA CALIFORNIA

CITY           SKY/WX    TMP DP  RH WIND       PRES   REMARKS
LA PAZ         CLEAR     73  54  49 S9        30.01R
MEXICALI       CLEAR     77  41  27 S5        29.95R
S.J. DEL CABO  CLEAR     72  52  49 W6        29.98R
TIJUANA        CLEAR     64  55  72 W6        30.08R

NORTHWESTERN MEXICO

CITY           SKY/WX    TMP DP  RH WIND       PRES   REMARKS
CULIACAN       CLEAR     73  63  68 CALM      29.94R
HERMOSILLO     CLEAR     81  41  24 CALM      29.97R
CD. JUAREZ     CLEAR     66  30  26 S6        30.10R
LOS MOCHIS     CLEAR     73  57  56 W3        29.94R
OBREGON          N/A    N/A N/A N/A MISG        N/A

NORTHEASTERN MEXICO

CITY           SKY/WX    TMP DP  RH WIND       PRES   REMARKS
CHIHUAHUA      CLEAR     57  27  30 SW6       30.25R
MATAMOROS      CLEAR     59  57  94 CALM      30.25R
MONTERREY      CLEAR     59  37  44 SE3       30.20R
REYNOSA        CLEAR     59  45  58 SE6       30.21R
SALTILLO       CLEAR     54  45  71 N7        30.32R
CD. VICTORIA   PTCLDY    66  52  59 E8        30.23R

WESTERN MEXICO

CITY           SKY/WX    TMP DP  RH WIND       PRES   REMARKS
AGUASCALIENTES PTCLDY    55  39  54 N10       30.32R
COLIMA         PTCLDY    72  52  49 CALM      30.06
DEL BAJIO      MOCLDY    61  46  59 N13       30.37
GUADALAJARA    MOCLDY    66  41  39 NW7       30.20R
MAZATLAN       CLEAR     66  61  82 W8        29.96R
P. VALLARTA    MOCLDY    75  70  83 CALM      29.98R
ZACATECAS      CLEAR     54  43  66 E14       30.38R

CENTRAL MEXICO

CITY           SKY/WX    TMP DP  RH WIND       PRES   REMARKS
MEXICO CITY    LGT RAIN  52  48  87 NE8       30.46R
MORELIA        CLEAR     57  48  72 SE7       30.30R
PUEBLA         RAIN      50  45  81 N10       30.47R WCI  46
QUERETARO      LGT RAIN  54  50  87 E8        30.44R
S. LUIS POTOSI MOCLDY    54  45  71 NE7       30.37R
TAMPICO        PTCLDY    64  55  72 SE5       30.25R
TOLUCA         MOCLDY    52  45  76 W8        30.46R

SOUTHERN MEXICO

CITY           SKY/WX    TMP DP  RH WIND       PRES   REMARKS
ACAPULCO       MOCLDY    79  73  83 W5        29.98R
OAXACA         MOCLDY    61  57  88 W5        30.37R
VERACRUZ       CLOUDY    68  54  60 N12       30.22R

YUCATAN PENINSULA

CITY           SKY/WX    TMP DP  RH WIND       PRES   REMARKS
CAMPECHE       MOCLDY    77  70  78 N12G23    30.07R
CANCUN         CLOUDY    72  70  94 NW7       30.05R
CD. DEL CARMEN CLOUDY    77  73  88 N13       30.11R
COZUMEL        MOCLDY    70  70 100 W5        30.05S
MERIDA         PTCLDY    75  66  73 N10       30.10R
TAPACHULA      MOCLDY    82  77  83 CALM      29.94S HX  91
TUX. GUTIERREZ PTCLDY    72  61  68 NW23      30.12R
VILLAHERMOSA   MOCLDY    72  72 100 W7        30.17R

CENTRAL AMERICA

CITY           SKY/WX    TMP DP  RH WIND       PRES   REMARKS
MANAGUA        MOCLDY    82  68  61 CALM      29.92R

CARIBBEAN

CITY           SKY/WX    TMP DP  RH WIND       PRES   REMARKS
ARUBA          PTCLDY    81  73  78 E17       29.94S
KINGSTON       PTCLDY    82  70  65 SE15      30.00S
NASSAU         HVY RAIN  73  70  88 W17       30.00  VSB 1
SAN JUAN       PTCLDY    77  70  78 SE5       30.09F
SANTO DOMINGO  PTCLDY    75  72  88 SE5       30.03F
ST. CROIX      PTCLDY    77  70  78 E15       30.09
ST. MAARTEN    PTCLDY    79  66  65 SE14      30.09F

$$



USA.gov is the U.S. government's official web portal to all federal, state and local government web resources and services.